Вернуться в каталог

HULIANWANG DIGUI-72

АктивенСвязьPO
NORAD 65232·PAYLOAD·🇨🇳 China

Запущен Aug 17, 2025 с Taiyuan Satellite Launch Center

Loading…

Ближайшие Пролёты (ближайшие 24 часа)

TLE

СвежийSource: Space-Track

Эпоха: Sep 14, 2026, 14:59 UTC

1 65232U 25178E   26257.62492913  .00000045  00000-0  70549-4 0  9997
2 65232  86.5041 343.3335 0001580 106.0415 254.0893 13.24412742 52153

Отслеживайте HULIANWANG DIGUI-72 в реальном времени с AllMySat

Download on the App Store